User: anonymous   Login
Location: Castiglione Fibocchi
(43.5333°N, 11.7667°E)
Time: 05:58:32
(UTC+00:00)
Language:

Cosmos 2263 Rocket - Orbit

View from above orbital plane
View from above orbital plane
View from above satellite
View from above satellite

Ground track
Ground track

The orbit data is extracted from the following two-line orbital elements,

1 22803U 93059B   20292.95468658 -.00000239 +00000-0 -95334-4 0  9991
2 22803 070.9909 198.9979 0018669 321.7512 038.2286 14.16828390400795
Epoch (UTC): 18 October 2020 22:54:44
Eccentricity: 0.0018669
inclination: 70.9909°
perigee height: 822 km
apogee height: 849 km
right ascension of ascending node: 198.9979°
argument of perigee: 321.7512°
revolutions per day: 14.16828390
mean anomaly at epoch: 38.2286°
orbit number at epoch: 40079

The dashed part of the orbit path shows where the satellite is in the earth's shadow,  

DLR